Greenville, ME

9:06 AM EDT on March 23, 2017 (GMT -0400)
Greenville

Weather History for KGNR - October, 2013

Change the Weather History Date:

Friday, October 18, 2013

  Actual Average (KMLT) Record (KMLT)
Temperature  
Mean Temperature 50 °F -  
Max Temperature 57 °F 52 °F 82 °F (1947)
Min Temperature 46 °F 34 °F 18 °F (1953)
Degree Days  
Heating Degree Days 14    
Moisture  
Dew Point 45 °F    
Average Humidity 84    
Maximum Humidity 97    
Minimum Humidity 66    
Precipitation  
Precipitation 0.19 in - - ()
Sea Level Pressure  
Sea Level Pressure 29.67 in    
Wind  
Wind Speed 3 mph (East)    
Max Wind Speed 8 mph    
Max Gust Speed -    
Averages and records for this station are not official NWS values.
T = Trace of Precipitation, MM = Missing Value Source: NWS Daily Summary

Daily Weather History Graph

Daily Weather History Graph

Search for Another Location

Airport or City:

Trip Planner

Search our weather history database for the weather conditions in past years. The results will help you decide how hot, cold, wet, or windy it might be!

Date:

Astronomy

Oct. 18, 2013 Rise Set
Actual Time 6:58 AM EDT 5:47 PM EDT
Civil Twilight 6:28 AM EDT 6:17 PM EDT
Nautical Twilight 5:54 AM EDT 6:51 PM EDT
Astronomical Twilight 5:20 AM EDT 7:25 PM EDT
Moon 5:34 PM EDT (10/18) 6:30 AM EDT (10/18)
Length of Visible Light 11h 48m
Length of Day
10h 48m
Full, 100% of the Moon is Illuminated
Oct 18
Full
Oct 18
Full
Oct 26
Last Quarter
Nov 3
New
Nov 10
First Quarter

Hourly Weather History & Observations

Time (EDT) Temp. Dew Point Humidity Pressure Visibility Wind Dir Wind Speed Gust Speed Precip Events Conditions
12:56 AM 46.9 °F 43.0 °F 86% 29.72 in - Calm Calm - N/A   Unknown
1:56 AM 48.0 °F 43.0 °F 83% 29.74 in - Calm Calm - N/A   Unknown
2:56 AM 46.9 °F 45.0 °F 93% 29.71 in - Calm Calm - 0.05 in   Unknown
3:56 AM 48.0 °F 45.0 °F 89% 29.67 in - NE 3.5 mph - 0.05 in   Unknown
4:56 AM 48.0 °F 46.0 °F 93% 29.66 in - Calm Calm - 0.01 in   Unknown
5:56 AM 46.9 °F 46.0 °F 97% 29.64 in - East 8.1 mph - 0.06 in   Unknown
6:56 AM 46.9 °F 46.0 °F 97% 29.61 in - SE 6.9 mph - N/A   Unknown
7:56 AM 48.0 °F 46.0 °F 93% 29.60 in - ESE 4.6 mph - N/A   Unknown
8:56 AM 48.0 °F 46.9 °F 96% 29.60 in - SE 5.8 mph - N/A   Unknown
9:56 AM 48.9 °F 46.9 °F 93% 29.62 in - Calm Calm - 0.01 in   Unknown
10:56 AM 52.0 °F 48.9 °F 89% 29.61 in - NNW 6.9 mph - 0.01 in   Unknown
11:56 AM 52.0 °F 48.9 °F 89% 29.62 in - Variable 5.8 mph - N/A   Unknown
12:56 PM 53.1 °F 48.9 °F 86% 29.61 in - Variable 5.8 mph - N/A   Unknown
1:56 PM 53.1 °F 48.0 °F 83% 29.63 in - Variable 5.8 mph - N/A   Unknown
2:56 PM 55.9 °F 46.0 °F 69% 29.63 in - Variable 6.9 mph - N/A   Unknown
3:56 PM 53.1 °F 46.9 °F 80% 29.66 in - Variable 3.5 mph - N/A   Unknown
4:56 PM 52.0 °F 45.0 °F 77% 29.67 in - Variable 5.8 mph - N/A   Unknown
5:56 PM 50.0 °F 45.0 °F 83% 29.69 in - Variable 3.5 mph - N/A   Unknown
6:56 PM 50.0 °F 45.0 °F 83% 29.70 in - Calm Calm - N/A   Unknown
7:56 PM 48.9 °F 42.1 °F 77% 29.72 in - Variable 4.6 mph - N/A   Unknown
8:56 PM 50.0 °F 39.9 °F 68% 29.73 in - Variable 6.9 mph - N/A   Unknown
9:56 PM 48.9 °F 39.9 °F 71% 29.75 in - Variable 5.8 mph - N/A   Unknown
10:56 PM 50.0 °F 39.0 °F 66% 29.76 in - Variable 3.5 mph - N/A   Unknown
11:56 PM 48.9 °F 37.9 °F 66% 29.77 in - Variable 4.6 mph - N/A   Unknown